Time,TemperatureF,DewpointF,PressureIn,WindDirection,WindDirectionDegrees,WindSpeedMPH,WindSpeedGustMPH,Humidity,HourlyPrecipIn,Conditions,Clouds,dailyrainin,SoftwareType,DateUTC
2013-03-08 00:00:00,39.0,32.7,30.19,NW,315,0.0,0.0,78,0.00,,,0.00,WeatherCatV1.11B39,2013-03-08 05:00:00,
2013-03-08 00:05:00,38.9,32.6,30.19,NW,315,0.0,0.0,78,0.00,,,0.00,WeatherCatV1.11B39,2013-03-08 05:05:00,
2013-03-08 00:10:00,38.8,32.9,30.19,NW,315,0.0,0.0,79,0.00,,,0.00,WeatherCatV1.11B39,2013-03-08 05:10:00,
2013-03-08 00:15:00,38.6,33.0,30.19,NW,315,1.0,2.0,80,0.00,,,0.00,WeatherCatV1.11B39,2013-03-08 05:15:00,
2013-03-08 00:20:00,38.5,32.9,30.19,NW,315,1.0,2.0,80,0.00,,,0.00,WeatherCatV1.11B39,2013-03-08 05:20:00,
2013-03-08 00:25:00,38.4,32.8,30.19,NW,315,0.0,0.0,80,0.00,,,0.00,WeatherCatV1.11B39,2013-03-08 05:25:00,
2013-03-08 00:30:00,38.2,32.6,30.19,NW,315,0.0,0.0,80,0.00,,,0.00,WeatherCatV1.11B39,2013-03-08 05:30:00,
2013-03-08 00:32:00,38.2,32.6,30.19,NW,315,0.0,0.0,80,0.00,,,0.00,WeatherCatV1.11B39,2013-03-08 05:32:00,
2013-03-08 00:37:00,37.9,32.3,30.19,NW,315,0.0,0.0,80,0.00,,,0.00,WeatherCatV1.11B39,2013-03-08 05:37:00,
2013-03-08 00:42:00,37.7,32.1,30.20,NW,315,1.0,2.0,80,0.00,,,0.00,WeatherCatV1.11B39,2013-03-08 05:42:00,
2013-03-08 00:47:00,37.6,32.3,30.20,NW,315,0.0,1.0,81,0.00,,,0.00,WeatherCatV1.11B39,2013-03-08 05:47:00,
2013-03-08 00:52:00,37.5,32.2,30.20,NW,315,2.0,2.0,81,0.00,,,0.00,WeatherCatV1.11B39,2013-03-08 05:52:00,
2013-03-08 00:57:00,37.2,31.9,30.20,NW,315,0.0,1.0,81,0.00,,,0.00,WeatherCatV1.11B39,2013-03-08 05:57:00,
2013-03-08 01:02:00,37.0,31.7,30.20,NW,315,0.0,0.0,81,0.00,,,0.00,WeatherCatV1.11B39,2013-03-08 06:02:00,
2013-03-08 01:07:00,36.9,31.9,30.21,NE,43,2.0,4.0,82,0.00,,,0.00,WeatherCatV1.11B39,2013-03-08 06:07:00,
2013-03-08 01:12:00,36.8,32.1,30.21,NE,39,4.0,5.0,83,0.00,,,0.00,WeatherCatV1.11B39,2013-03-08 06:12:00,
2013-03-08 01:17:00,36.7,32.0,30.22,NE,34,5.0,6.0,83,0.00,,,0.00,WeatherCatV1.11B39,2013-03-08 06:17:00,
2013-03-08 01:22:00,36.8,32.1,30.22,NNE,30,8.0,11.0,83,0.00,,,0.00,WeatherCatV1.11B39,2013-03-08 06:22:00,
2013-03-08 01:27:00,37.5,32.8,30.22,ENE,63,4.0,13.0,83,0.00,,,0.00,WeatherCatV1.11B39,2013-03-08 06:27:00,
2013-03-08 01:32:00,38.2,32.6,30.23,NNE,33,5.0,8.0,80,0.00,,,0.00,WeatherCatV1.11B39,2013-03-08 06:32:00,
2013-03-08 01:37:00,38.7,32.4,30.23,NE,35,2.0,5.0,78,0.00,,,0.00,WeatherCatV1.11B39,2013-03-08 06:37:00,
2013-03-08 01:42:00,38.9,32.3,30.23,NE,49,0.0,8.0,77,0.00,,,0.00,WeatherCatV1.11B39,2013-03-08 06:42:00,
2013-03-08 01:47:00,39.0,32.4,30.23,NE,36,3.0,4.0,77,0.00,,,0.00,WeatherCatV1.11B39,2013-03-08 06:47:00,
2013-03-08 01:52:00,39.1,32.2,30.23,NE,34,5.0,6.0,76,0.00,,,0.00,WeatherCatV1.11B39,2013-03-08 06:52:00,
2013-03-08 01:57:00,39.1,31.9,30.23,NE,43,0.0,8.0,75,0.00,,,0.00,WeatherCatV1.11B39,2013-03-08 06:57:00,
2013-03-08 02:02:00,39.1,31.9,30.23,NE,45,2.0,3.0,75,0.00,,,0.00,WeatherCatV1.11B39,2013-03-08 07:02:00,
2013-03-08 02:07:00,39.1,31.5,30.23,NE,46,0.0,4.0,74,0.00,,,0.00,WeatherCatV1.11B39,2013-03-08 07:07:00,
2013-03-08 02:12:00,39.1,31.5,30.23,NE,46,4.0,5.0,74,0.00,,,0.00,WeatherCatV1.11B39,2013-03-08 07:12:00,
2013-03-08 02:17:00,39.0,31.4,30.23,NE,52,1.0,3.0,74,0.00,,,0.00,WeatherCatV1.11B39,2013-03-08 07:17:00,
2013-03-08 02:22:00,39.0,31.4,30.23,NNE,24,2.0,7.0,74,0.00,,,0.00,WeatherCatV1.11B39,2013-03-08 07:22:00,
2013-03-08 02:27:00,38.9,31.3,30.23,NE,47,0.0,6.0,74,0.00,,,0.00,WeatherCatV1.11B39,2013-03-08 07:27:00,
2013-03-08 02:32:00,38.9,31.0,30.23,NE,48,1.0,4.0,73,0.00,,,0.00,WeatherCatV1.11B39,2013-03-08 07:32:00,
2013-03-08 02:37:00,38.8,30.9,30.23,NE,48,1.0,3.0,73,0.00,,,0.00,WeatherCatV1.11B39,2013-03-08 07:37:00,
2013-03-08 02:42:00,38.6,31.0,30.23,NE,48,0.0,4.0,74,0.00,,,0.00,WeatherCatV1.11B39,2013-03-08 07:42:00,
2013-03-08 02:47:00,38.3,30.8,30.23,ENE,62,0.0,2.0,74,0.00,,,0.00,WeatherCatV1.11B39,2013-03-08 07:47:00,
2013-03-08 02:52:00,38.0,30.5,30.23,ENE,59,2.0,7.0,74,0.00,,,0.00,WeatherCatV1.11B39,2013-03-08 07:52:00,
2013-03-08 02:57:00,38.0,30.5,30.23,ENE,62,3.0,5.0,74,0.00,,,0.00,WeatherCatV1.11B39,2013-03-08 07:57:00,
2013-03-08 03:02:00,38.0,30.5,30.24,NE,51,4.0,8.0,74,0.00,,,0.00,WeatherCatV1.11B39,2013-03-08 08:02:00,
2013-03-08 03:07:00,37.9,30.4,30.24,NE,54,2.0,6.0,74,0.00,,,0.00,WeatherCatV1.11B39,2013-03-08 08:07:00,
2013-03-08 03:12:00,37.9,30.0,30.24,NE,44,3.0,10.0,73,0.00,,,0.00,WeatherCatV1.11B39,2013-03-08 08:12:00,
2013-03-08 03:17:00,37.9,30.4,30.24,NE,49,3.0,5.0,74,0.00,,,0.00,WeatherCatV1.11B39,2013-03-08 08:17:00,
2013-03-08 03:22:00,37.9,30.0,30.24,NE,51,1.0,5.0,73,0.00,,,0.00,WeatherCatV1.11B39,2013-03-08 08:22:00,
2013-03-08 03:27:00,37.8,29.9,30.24,NE,42,2.0,7.0,73,0.00,,,0.00,WeatherCatV1.11B39,2013-03-08 08:27:00,
2013-03-08 03:32:00,37.6,29.4,30.24,NE,34,2.0,6.0,72,0.00,,,0.00,WeatherCatV1.11B39,2013-03-08 08:32:00,
2013-03-08 03:38:00,37.5,29.3,30.24,NE,39,2.0,7.0,72,0.00,,,0.00,WeatherCatV1.11B39,2013-03-08 08:38:00,
2013-03-08 03:43:00,37.5,29.3,30.24,NE,44,1.0,3.0,72,0.00,,,0.00,WeatherCatV1.11B39,2013-03-08 08:43:00,
2013-03-08 03:48:00,37.5,29.0,30.25,NE,42,4.0,4.0,71,0.00,,,0.00,WeatherCatV1.11B39,2013-03-08 08:48:00,
2013-03-08 03:53:00,37.4,28.9,30.25,NE,42,2.0,3.0,71,0.00,,,0.00,WeatherCatV1.11B39,2013-03-08 08:53:00,
2013-03-08 03:58:00,37.3,28.8,30.25,NE,42,2.0,6.0,71,0.00,,,0.00,WeatherCatV1.11B39,2013-03-08 08:58:00,
2013-03-08 04:03:00,37.2,28.7,30.25,NE,48,1.0,5.0,71,0.00,,,0.00,WeatherCatV1.11B39,2013-03-08 09:03:00,
2013-03-08 04:08:00,37.1,28.6,30.25,NE,47,2.0,6.0,71,0.00,,,0.00,WeatherCatV1.11B39,2013-03-08 09:08:00,
2013-03-08 04:13:00,37.0,28.5,30.25,NE,46,3.0,6.0,71,0.00,,,0.00,WeatherCatV1.11B39,2013-03-08 09:13:00,
2013-03-08 04:18:00,36.9,28.7,30.25,NE,44,4.0,4.0,72,0.00,,,0.00,WeatherCatV1.11B39,2013-03-08 09:18:00,
2013-03-08 04:23:00,36.7,28.5,30.25,NE,44,4.0,4.0,72,0.00,,,0.00,WeatherCatV1.11B39,2013-03-08 09:23:00,
2013-03-08 04:28:00,36.6,28.4,30.25,NE,41,5.0,5.0,72,0.00,,,0.00,WeatherCatV1.11B39,2013-03-08 09:28:00,
2013-03-08 04:33:00,36.5,28.3,30.25,NE,49,1.0,6.0,72,0.00,,,0.00,WeatherCatV1.11B39,2013-03-08 09:33:00,
2013-03-08 04:38:00,36.3,28.2,30.25,NE,47,3.0,4.0,72,0.00,,,0.00,WeatherCatV1.11B39,2013-03-08 09:38:00,
2013-03-08 04:43:00,36.1,28.0,30.25,NE,38,2.0,7.0,72,0.00,,,0.00,WeatherCatV1.11B39,2013-03-08 09:43:00,
2013-03-08 04:48:00,36.0,28.2,30.26,NE,39,2.0,5.0,73,0.00,,,0.00,WeatherCatV1.11B39,2013-03-08 09:48:00,
2013-03-08 04:53:00,35.9,28.1,30.25,NE,39,2.0,5.0,73,0.00,,,0.00,WeatherCatV1.11B39,2013-03-08 09:53:00,
2013-03-08 04:58:00,35.7,27.9,30.26,NNE,31,4.0,6.0,73,0.00,,,0.00,WeatherCatV1.11B39,2013-03-08 09:58:00,
2013-03-08 05:03:00,35.7,27.9,30.26,NE,38,1.0,3.0,73,0.00,,,0.00,WeatherCatV1.11B39,2013-03-08 10:03:00,
2013-03-08 05:08:00,35.7,27.9,30.26,NE,49,4.0,4.0,73,0.00,,,0.00,WeatherCatV1.11B39,2013-03-08 10:08:00,
2013-03-08 05:13:00,35.7,27.6,30.26,NE,49,2.0,4.0,72,0.00,,,0.00,WeatherCatV1.11B39,2013-03-08 10:13:00,
2013-03-08 05:18:00,35.6,27.5,30.26,NE,48,1.0,4.0,72,0.00,,,0.00,WeatherCatV1.11B39,2013-03-08 10:18:00,
2013-03-08 05:23:00,35.5,27.4,30.27,NE,48,2.0,3.0,72,0.00,,,0.00,WeatherCatV1.11B39,2013-03-08 10:23:00,
2013-03-08 05:28:00,35.3,27.5,30.27,NE,46,0.0,5.0,73,0.00,,,0.00,WeatherCatV1.11B39,2013-03-08 10:28:00,
2013-03-08 05:33:00,35.2,27.4,30.27,NE,42,5.0,5.0,73,0.00,,,0.00,WeatherCatV1.11B39,2013-03-08 10:33:00,
2013-03-08 05:38:00,35.1,27.3,30.26,NE,41,3.0,6.0,73,0.00,,,0.00,WeatherCatV1.11B39,2013-03-08 10:38:00,
2013-03-08 05:43:00,35.0,27.6,30.26,NNE,31,3.0,6.0,74,0.00,,,0.00,WeatherCatV1.11B39,2013-03-08 10:43:00,
2013-03-08 05:48:00,34.9,27.5,30.26,NE,42,0.0,4.0,74,0.00,,,0.00,WeatherCatV1.11B39,2013-03-08 10:48:00,
2013-03-08 05:53:00,34.9,27.5,30.26,NE,38,4.0,6.0,74,0.00,,,0.00,WeatherCatV1.11B39,2013-03-08 10:53:00,
2013-03-08 05:58:00,34.9,27.5,30.26,NE,38,2.0,4.0,74,0.00,,,0.00,WeatherCatV1.11B39,2013-03-08 10:58:00,
2013-03-08 06:03:00,34.8,27.0,30.27,NNE,17,1.0,6.0,73,0.00,,,0.00,WeatherCatV1.11B39,2013-03-08 11:03:00,
2013-03-08 06:08:00,34.8,27.0,30.27,NNE,32,1.0,3.0,73,0.00,,,0.00,WeatherCatV1.11B39,2013-03-08 11:08:00,
2013-03-08 06:13:00,34.7,26.9,30.27,NE,38,3.0,5.0,73,0.00,,,0.00,WeatherCatV1.11B39,2013-03-08 11:13:00,
2013-03-08 06:18:00,34.5,26.8,30.27,NE,39,5.0,6.0,73,0.00,,,0.00,WeatherCatV1.11B39,2013-03-08 11:18:00,
2013-03-08 06:23:00,34.4,26.7,30.27,NE,34,4.0,5.0,73,0.00,,,0.00,WeatherCatV1.11B39,2013-03-08 11:23:00,
2013-03-08 06:28:00,34.4,26.7,30.27,NE,36,4.0,5.0,73,0.00,,,0.00,WeatherCatV1.11B39,2013-03-08 11:28:00,
2013-03-08 06:33:00,34.4,26.7,30.27,NE,35,1.0,6.0,73,0.00,,,0.00,WeatherCatV1.11B39,2013-03-08 11:33:00,
2013-03-08 06:38:00,34.3,26.6,30.28,NE,38,2.0,4.0,73,0.00,,,0.00,WeatherCatV1.11B39,2013-03-08 11:38:00,
2013-03-08 06:43:00,34.1,26.7,30.28,NE,38,3.0,4.0,74,0.00,,,0.00,WeatherCatV1.11B39,2013-03-08 11:43:00,
2013-03-08 06:48:00,34.0,26.6,30.28,NE,38,2.0,4.0,74,0.00,,,0.00,WeatherCatV1.11B39,2013-03-08 11:48:00,
2013-03-08 06:53:00,33.9,26.5,30.28,NE,38,0.0,3.0,74,0.00,,,0.00,WeatherCatV1.11B39,2013-03-08 11:53:00,
2013-03-08 06:58:00,33.9,26.5,30.28,NNE,31,3.0,6.0,74,0.00,,,0.00,WeatherCatV1.11B39,2013-03-08 11:58:00,
2013-03-08 07:03:00,34.0,26.6,30.28,NNE,33,2.0,5.0,74,0.00,,,0.00,WeatherCatV1.11B39,2013-03-08 12:03:00,
2013-03-08 07:08:00,34.0,26.6,30.28,NNE,32,2.0,3.0,74,0.00,,,0.00,WeatherCatV1.11B39,2013-03-08 12:08:00,
2013-03-08 07:13:00,34.1,26.4,30.28,NNE,32,4.0,5.0,73,0.00,,,0.00,WeatherCatV1.11B39,2013-03-08 12:13:00,
2013-03-08 07:18:00,34.2,26.8,30.29,NNE,33,2.0,5.0,74,0.00,,,0.00,WeatherCatV1.11B39,2013-03-08 12:18:00,
2013-03-08 07:23:00,34.4,26.7,30.29,NNE,32,1.0,6.0,73,0.00,,,0.00,WeatherCatV1.11B39,2013-03-08 12:23:00,
2013-03-08 07:28:00,34.5,26.8,30.29,NE,44,1.0,4.0,73,0.00,,,0.00,WeatherCatV1.11B39,2013-03-08 12:28:00,
2013-03-08 07:33:00,35.0,26.6,30.29,NE,42,3.0,4.0,71,0.00,,,0.00,WeatherCatV1.11B39,2013-03-08 12:33:00,
2013-03-08 07:38:00,35.3,26.9,30.29,NE,54,3.0,4.0,71,0.00,,,0.00,WeatherCatV1.11B39,2013-03-08 12:38:00,
2013-03-08 07:43:00,35.9,27.1,30.30,NE,36,4.0,7.0,70,0.00,,,0.00,WeatherCatV1.11B39,2013-03-08 12:43:00,
2013-03-08 07:48:00,36.3,27.1,30.31,NNE,32,4.0,7.0,69,0.00,,,0.00,WeatherCatV1.11B39,2013-03-08 12:48:00,
2013-03-08 07:53:00,36.7,27.1,30.31,NE,48,5.0,6.0,68,0.00,,,0.00,WeatherCatV1.11B39,2013-03-08 12:53:00,
2013-03-08 07:58:00,37.0,27.1,30.31,NE,56,4.0,7.0,67,0.00,,,0.00,WeatherCatV1.11B39,2013-03-08 12:58:00,
2013-03-08 08:03:00,37.4,26.7,30.31,NNE,26,3.0,7.0,65,0.00,,,0.00,WeatherCatV1.11B39,2013-03-08 13:03:00,
2013-03-08 08:08:00,37.7,26.6,30.31,NE,37,5.0,8.0,64,0.00,,,0.00,WeatherCatV1.11B39,2013-03-08 13:08:00,
2013-03-08 08:13:00,38.1,27.0,30.31,ENE,62,5.0,7.0,64,0.00,,,0.00,WeatherCatV1.11B39,2013-03-08 13:13:00,
2013-03-08 08:19:00,38.5,27.4,30.31,NE,46,2.0,8.0,64,0.00,,,0.00,WeatherCatV1.11B39,2013-03-08 13:19:00,
2013-03-08 08:24:00,38.9,27.8,30.31,NE,56,9.0,11.0,64,0.00,,,0.00,WeatherCatV1.11B39,2013-03-08 13:24:00,
2013-03-08 08:29:00,39.1,27.2,30.31,East,80,7.0,10.0,62,0.00,,,0.00,WeatherCatV1.11B39,2013-03-08 13:29:00,
2013-03-08 08:34:00,39.5,27.6,30.31,NE,36,11.0,14.0,62,0.00,,,0.00,WeatherCatV1.11B39,2013-03-08 13:34:00,
2013-03-08 08:39:00,39.7,27.4,30.31,ENE,75,7.0,8.0,61,0.00,,,0.00,WeatherCatV1.11B39,2013-03-08 13:39:00,
2013-03-08 08:44:00,40.0,27.7,30.31,ENE,60,5.0,10.0,61,0.00,,,0.00,WeatherCatV1.11B39,2013-03-08 13:44:00,
2013-03-08 08:49:00,40.3,27.5,30.32,ENE,76,9.0,14.0,60,0.00,,,0.00,WeatherCatV1.11B39,2013-03-08 13:49:00,
2013-03-08 08:54:00,40.8,27.2,30.32,NNE,17,7.0,9.0,58,0.00,,,0.00,WeatherCatV1.11B39,2013-03-08 13:54:00,
2013-03-08 08:59:00,41.0,27.4,30.32,ENE,59,7.0,7.0,58,0.00,,,0.00,WeatherCatV1.11B39,2013-03-08 13:59:00,
2013-03-08 09:04:00,41.4,28.2,30.31,NNE,28,8.0,8.0,59,0.00,,,0.00,WeatherCatV1.11B39,2013-03-08 14:04:00,
2013-03-08 09:09:00,41.8,27.7,30.31,ENE,59,7.0,10.0,57,0.00,,,0.00,WeatherCatV1.11B39,2013-03-08 14:09:00,
2013-03-08 09:14:00,42.3,28.2,30.32,ENE,65,7.0,10.0,57,0.00,,,0.00,WeatherCatV1.11B39,2013-03-08 14:14:00,
2013-03-08 09:19:00,43.0,28.0,30.32,East,87,3.0,11.0,55,0.00,,,0.00,WeatherCatV1.11B39,2013-03-08 14:19:00,
2013-03-08 09:24:00,43.7,28.6,30.32,NE,44,8.0,10.0,55,0.00,,,0.00,WeatherCatV1.11B39,2013-03-08 14:24:00,
2013-03-08 09:29:00,44.0,28.4,30.31,NNE,28,7.0,11.0,54,0.00,,,0.00,WeatherCatV1.11B39,2013-03-08 14:29:00,
2013-03-08 09:34:00,44.2,28.2,30.32,ENE,58,3.0,8.0,53,0.00,,,0.00,WeatherCatV1.11B39,2013-03-08 14:34:00,
2013-03-08 09:39:00,44.7,28.6,30.31,East,94,0.0,8.0,53,0.00,,,0.00,WeatherCatV1.11B39,2013-03-08 14:39:00,
2013-03-08 09:44:00,45.4,28.8,30.31,ENE,73,1.0,7.0,52,0.00,,,0.00,WeatherCatV1.11B39,2013-03-08 14:44:00,
2013-03-08 09:49:00,46.0,29.4,30.31,NNE,20,5.0,5.0,52,0.00,,,0.00,WeatherCatV1.11B39,2013-03-08 14:49:00,
2013-03-08 09:54:00,46.3,29.2,30.31,NE,40,5.0,8.0,51,0.00,,,0.00,WeatherCatV1.11B39,2013-03-08 14:54:00,
2013-03-08 09:59:00,46.4,27.8,30.31,NE,49,4.0,5.0,48,0.00,,,0.00,WeatherCatV1.11B39,2013-03-08 14:59:00,
2013-03-08 10:04:00,46.8,28.7,30.31,NNE,17,3.0,8.0,49,0.00,,,0.00,WeatherCatV1.11B39,2013-03-08 15:04:00,
2013-03-08 10:09:00,47.0,28.8,30.31,NNE,15,4.0,10.0,49,0.00,,,0.00,WeatherCatV1.11B39,2013-03-08 15:09:00,
2013-03-08 10:14:00,47.4,28.7,30.31,NE,53,3.0,5.0,48,0.00,,,0.00,WeatherCatV1.11B39,2013-03-08 15:14:00,
2013-03-08 10:19:00,48.3,29.0,30.31,NNE,28,8.0,8.0,47,0.00,,,0.00,WeatherCatV1.11B39,2013-03-08 15:19:00,
2013-03-08 10:24:00,48.7,28.9,30.31,NE,46,6.0,8.0,46,0.00,,,0.00,WeatherCatV1.11B39,2013-03-08 15:24:00,
2013-03-08 10:29:00,49.6,29.1,30.31,East,84,1.0,3.0,45,0.00,,,0.00,WeatherCatV1.11B39,2013-03-08 15:29:00,
2013-03-08 10:34:00,50.8,30.2,30.31,East,79,0.0,5.0,45,0.00,,,0.00,WeatherCatV1.11B39,2013-03-08 15:34:00,
2013-03-08 10:39:00,49.2,27.7,30.31,North,5,0.0,3.0,43,0.00,,,0.00,WeatherCatV1.11B39,2013-03-08 15:39:00,
2013-03-08 10:44:00,50.5,28.3,30.31,East,93,0.0,6.0,42,0.00,,,0.00,WeatherCatV1.11B39,2013-03-08 15:44:00,
2013-03-08 10:49:00,51.1,27.6,30.31,NE,38,6.0,10.0,40,0.00,,,0.00,WeatherCatV1.11B39,2013-03-08 15:49:00,
2013-03-08 10:54:00,50.5,27.7,30.31,NNE,33,5.0,6.0,41,0.00,,,0.00,WeatherCatV1.11B39,2013-03-08 15:54:00,
2013-03-08 10:59:00,50.9,27.4,30.31,East,93,8.0,8.0,40,0.00,,,0.00,WeatherCatV1.11B39,2013-03-08 15:59:00,
2013-03-08 11:04:00,51.3,27.8,30.31,NE,45,4.0,7.0,40,0.00,,,0.00,WeatherCatV1.11B39,2013-03-08 16:04:00,
2013-03-08 11:09:00,52.1,29.1,30.30,ENE,58,4.0,8.0,41,0.00,,,0.00,WeatherCatV1.11B39,2013-03-08 16:09:00,
2013-03-08 11:14:00,52.5,27.6,30.30,NE,43,9.0,10.0,38,0.00,,,0.00,WeatherCatV1.11B39,2013-03-08 16:14:00,
2013-03-08 11:19:00,52.5,27.6,30.30,East,80,8.0,10.0,38,0.00,,,0.00,WeatherCatV1.11B39,2013-03-08 16:19:00,
2013-03-08 11:24:00,52.3,26.8,30.30,NE,50,5.0,8.0,37,0.00,,,0.00,WeatherCatV1.11B39,2013-03-08 16:24:00,
2013-03-08 11:29:00,53.0,28.1,30.30,ENE,61,7.0,8.0,38,0.00,,,0.00,WeatherCatV1.11B39,2013-03-08 16:29:00,
2013-03-08 11:34:00,53.0,28.1,30.30,NE,51,6.0,10.0,38,0.00,,,0.00,WeatherCatV1.11B39,2013-03-08 16:34:00,
2013-03-08 11:39:00,52.4,27.5,30.30,East,86,3.0,5.0,38,0.00,,,0.00,WeatherCatV1.11B39,2013-03-08 16:39:00,
2013-03-08 11:44:00,52.5,27.6,30.30,East,97,1.0,2.0,38,0.00,,,0.00,WeatherCatV1.11B39,2013-03-08 16:44:00,
2013-03-08 11:49:00,54.0,27.7,30.30,NW,324,6.0,7.0,36,0.00,,,0.00,WeatherCatV1.11B39,2013-03-08 16:49:00,
2013-03-08 11:54:00,54.2,29.2,30.30,NE,36,5.0,8.0,38,0.00,,,0.00,WeatherCatV1.11B39,2013-03-08 16:54:00,
2013-03-08 11:59:00,54.1,27.7,30.30,East,99,0.0,3.0,36,0.00,,,0.00,WeatherCatV1.11B39,2013-03-08 16:59:00,
2013-03-08 12:04:00,54.7,27.6,30.30,NNE,12,0.0,6.0,35,0.00,,,0.00,WeatherCatV1.11B39,2013-03-08 17:04:00,
2013-03-08 12:09:00,54.8,27.7,30.30,NNE,22,9.0,10.0,35,0.00,,,0.00,WeatherCatV1.11B39,2013-03-08 17:09:00,
2013-03-08 12:14:00,54.7,28.3,30.30,NNE,17,10.0,10.0,36,0.00,,,0.00,WeatherCatV1.11B39,2013-03-08 17:14:00,
2013-03-08 12:19:00,55.4,28.2,30.29,NE,46,10.0,10.0,35,0.00,,,0.00,WeatherCatV1.11B39,2013-03-08 17:19:00,
2013-03-08 12:24:00,56.1,28.1,30.29,NNW,331,6.0,6.0,34,0.00,,,0.00,WeatherCatV1.11B39,2013-03-08 17:24:00,
2013-03-08 12:29:00,56.3,28.3,30.29,North,0,3.0,9.0,34,0.00,,,0.00,WeatherCatV1.11B39,2013-03-08 17:29:00,
2013-03-08 12:34:00,55.7,28.5,30.29,NNE,20,7.0,7.0,35,0.00,,,0.00,WeatherCatV1.11B39,2013-03-08 17:34:00,
2013-03-08 12:39:00,56.3,29.0,30.29,NE,39,5.0,10.0,35,0.00,,,0.00,WeatherCatV1.11B39,2013-03-08 17:39:00,
2013-03-08 12:44:00,56.5,29.2,30.29,NE,38,5.0,6.0,35,0.00,,,0.00,WeatherCatV1.11B39,2013-03-08 17:44:00,
2013-03-08 12:49:00,57.5,28.6,30.29,NW,305,4.0,4.0,33,0.00,,,0.00,WeatherCatV1.11B39,2013-03-08 17:49:00,
2013-03-08 12:54:00,57.8,28.9,30.28,NE,56,0.0,3.0,33,0.00,,,0.00,WeatherCatV1.11B39,2013-03-08 17:54:00,
2013-03-08 13:00:00,57.7,29.5,30.28,North,351,4.0,7.0,34,0.00,,,0.00,WeatherCatV1.11B39,2013-03-08 18:00:00,
2013-03-08 13:05:00,57.8,29.6,30.28,NNW,335,4.0,5.0,34,0.00,,,0.00,WeatherCatV1.11B39,2013-03-08 18:05:00,
2013-03-08 13:10:00,58.5,28.0,30.27,NNE,30,2.0,5.0,31,0.00,,,0.00,WeatherCatV1.11B39,2013-03-08 18:10:00,
2013-03-08 13:15:00,58.2,28.5,30.27,NE,56,1.0,4.0,32,0.00,,,0.00,WeatherCatV1.11B39,2013-03-08 18:15:00,
2013-03-08 13:20:00,57.7,28.0,30.27,NNE,13,0.0,1.0,32,0.00,,,0.00,WeatherCatV1.11B39,2013-03-08 18:20:00,
2013-03-08 13:25:00,58.9,28.3,30.27,North,5,5.0,7.0,31,0.00,,,0.00,WeatherCatV1.11B39,2013-03-08 18:25:00,
2013-03-08 13:30:00,59.0,29.9,30.26,North,0,5.0,7.0,33,0.00,,,0.00,WeatherCatV1.11B39,2013-03-08 18:30:00,
2013-03-08 13:35:00,58.7,28.9,30.26,NNW,327,4.0,9.0,32,0.00,,,0.00,WeatherCatV1.11B39,2013-03-08 18:35:00,
2013-03-08 13:40:00,59.6,29.7,30.25,NE,42,5.0,10.0,32,0.00,,,0.00,WeatherCatV1.11B39,2013-03-08 18:40:00,
2013-03-08 13:45:00,59.0,28.4,30.25,NNE,28,3.0,5.0,31,0.00,,,0.00,WeatherCatV1.11B39,2013-03-08 18:45:00,
2013-03-08 13:50:00,59.1,28.5,30.25,NW,321,6.0,9.0,31,0.00,,,0.00,WeatherCatV1.11B39,2013-03-08 18:50:00,
2013-03-08 13:55:00,59.0,28.4,30.24,NNW,333,3.0,12.0,31,0.00,,,0.00,WeatherCatV1.11B39,2013-03-08 18:55:00,
2013-03-08 14:00:00,59.6,28.9,30.24,North,0,4.0,7.0,31,0.00,,,0.00,WeatherCatV1.11B39,2013-03-08 19:00:00,
2013-03-08 14:05:00,59.7,29.8,30.24,North,5,3.0,9.0,32,0.00,,,0.00,WeatherCatV1.11B39,2013-03-08 19:05:00,
2013-03-08 14:10:00,59.0,28.4,30.23,NNE,13,0.0,3.0,31,0.00,,,0.00,WeatherCatV1.11B39,2013-03-08 19:10:00,
2013-03-08 14:15:00,60.2,28.7,30.23,NNE,20,4.0,4.0,30,0.00,,,0.00,WeatherCatV1.11B39,2013-03-08 19:15:00,
2013-03-08 14:20:00,60.0,27.7,30.23,North,0,4.0,6.0,29,0.00,,,0.00,WeatherCatV1.11B39,2013-03-08 19:20:00,
2013-03-08 14:25:00,60.7,26.5,30.23,NNE,26,4.0,13.0,27,0.00,,,0.00,WeatherCatV1.11B39,2013-03-08 19:25:00,
2013-03-08 14:30:00,60.8,27.5,30.23,NE,49,4.0,8.0,28,0.00,,,0.00,WeatherCatV1.11B39,2013-03-08 19:30:00,
2013-03-08 14:35:00,61.3,27.9,30.22,NNE,15,5.0,8.0,28,0.00,,,0.00,WeatherCatV1.11B39,2013-03-08 19:35:00,
2013-03-08 14:40:00,61.5,29.0,30.22,ENE,57,2.0,7.0,29,0.00,,,0.00,WeatherCatV1.11B39,2013-03-08 19:40:00,
2013-03-08 14:45:00,60.8,27.5,30.22,NNE,28,8.0,8.0,28,0.00,,,0.00,WeatherCatV1.11B39,2013-03-08 19:45:00,
2013-03-08 14:50:00,60.7,26.5,30.21,North,5,3.0,3.0,27,0.00,,,0.00,WeatherCatV1.11B39,2013-03-08 19:50:00,
2013-03-08 14:55:00,61.7,27.4,30.21,North,355,12.0,12.0,27,0.00,,,0.00,WeatherCatV1.11B39,2013-03-08 19:55:00,
2013-03-08 15:00:00,61.4,28.0,30.21,NW,308,6.0,6.0,28,0.00,,,0.00,WeatherCatV1.11B39,2013-03-08 20:00:00,
2013-03-08 15:05:00,62.3,27.9,30.20,NE,48,4.0,8.0,27,0.00,,,0.00,WeatherCatV1.11B39,2013-03-08 20:05:00,
2013-03-08 15:10:00,62.3,27.0,30.20,NNE,22,2.0,8.0,26,0.00,,,0.00,WeatherCatV1.11B39,2013-03-08 20:10:00,
2013-03-08 15:15:00,62.4,28.0,30.20,North,350,4.0,10.0,27,0.00,,,0.00,WeatherCatV1.11B39,2013-03-08 20:15:00,
2013-03-08 15:20:00,62.0,27.6,30.21,NW,308,7.0,7.0,27,0.00,,,0.00,WeatherCatV1.11B39,2013-03-08 20:20:00,
2013-03-08 15:25:00,61.9,27.6,30.20,NNE,13,4.0,5.0,27,0.00,,,0.00,WeatherCatV1.11B39,2013-03-08 20:25:00,
2013-03-08 15:30:00,62.1,26.8,30.20,ENE,62,4.0,9.0,26,0.00,,,0.00,WeatherCatV1.11B39,2013-03-08 20:30:00,
2013-03-08 15:35:00,62.6,25.3,30.20,NE,41,8.0,12.0,24,0.00,,,0.00,WeatherCatV1.11B39,2013-03-08 20:35:00,
2013-03-08 15:40:00,62.5,26.2,30.20,North,5,6.0,10.0,25,0.00,,,0.00,WeatherCatV1.11B39,2013-03-08 20:40:00,
2013-03-08 15:45:00,62.5,27.2,30.20,NNE,21,7.0,8.0,26,0.00,,,0.00,WeatherCatV1.11B39,2013-03-08 20:45:00,
2013-03-08 15:50:00,62.4,26.1,30.20,North,350,1.0,5.0,25,0.00,,,0.00,WeatherCatV1.11B39,2013-03-08 20:50:00,
2013-03-08 15:55:00,61.7,26.5,30.19,North,11,0.0,4.0,26,0.00,,,0.00,WeatherCatV1.11B39,2013-03-08 20:55:00,
2013-03-08 16:00:00,62.5,27.2,30.19,NE,54,5.0,7.0,26,0.00,,,0.00,WeatherCatV1.11B39,2013-03-08 21:00:00,
2013-03-08 16:05:00,62.5,27.2,30.19,NNW,327,2.0,8.0,26,0.00,,,0.00,WeatherCatV1.11B39,2013-03-08 21:05:00,
2013-03-08 16:10:00,62.4,27.1,30.19,North,355,1.0,4.0,26,0.00,,,0.00,WeatherCatV1.11B39,2013-03-08 21:10:00,
2013-03-08 16:15:00,62.6,27.2,30.19,NW,325,6.0,9.0,26,0.00,,,0.00,WeatherCatV1.11B39,2013-03-08 21:15:00,
2013-03-08 16:20:00,62.7,27.3,30.19,North,5,4.0,9.0,26,0.00,,,0.00,WeatherCatV1.11B39,2013-03-08 21:20:00,
2013-03-08 16:25:00,62.2,26.9,30.19,East,83,1.0,6.0,26,0.00,,,0.00,WeatherCatV1.11B39,2013-03-08 21:25:00,
2013-03-08 16:30:00,62.2,27.8,30.19,NNE,27,5.0,7.0,27,0.00,,,0.00,WeatherCatV1.11B39,2013-03-08 21:30:00,
2013-03-08 16:35:00,62.2,26.9,30.18,NW,325,4.0,8.0,26,0.00,,,0.00,WeatherCatV1.11B39,2013-03-08 21:35:00,
2013-03-08 16:40:00,62.0,26.7,30.18,NNE,31,3.0,7.0,26,0.00,,,0.00,WeatherCatV1.11B39,2013-03-08 21:40:00,
2013-03-08 16:45:00,61.7,26.5,30.19,NNE,32,3.0,3.0,26,0.00,,,0.00,WeatherCatV1.11B39,2013-03-08 21:45:00,
2013-03-08 16:50:00,61.5,27.2,30.19,NNE,15,3.0,8.0,27,0.00,,,0.00,WeatherCatV1.11B39,2013-03-08 21:50:00,
2013-03-08 16:55:00,61.3,26.1,30.19,NNE,22,10.0,12.0,26,0.00,,,0.00,WeatherCatV1.11B39,2013-03-08 21:55:00,
2013-03-08 17:00:00,61.2,25.1,30.19,NE,35,3.0,6.0,25,0.00,,,0.00,WeatherCatV1.11B39,2013-03-08 22:00:00,
2013-03-08 17:05:00,61.1,26.0,30.19,NE,38,1.0,4.0,26,0.00,,,0.00,WeatherCatV1.11B39,2013-03-08 22:05:00,
2013-03-08 17:11:00,61.0,26.8,30.19,NE,34,2.0,6.0,27,0.00,,,0.00,WeatherCatV1.11B39,2013-03-08 22:11:00,
2013-03-08 17:16:00,60.9,25.8,30.19,North,10,3.0,7.0,26,0.00,,,0.00,WeatherCatV1.11B39,2013-03-08 22:16:00,
2013-03-08 17:21:00,60.7,27.4,30.19,NE,34,3.0,3.0,28,0.00,,,0.00,WeatherCatV1.11B39,2013-03-08 22:21:00,
2013-03-08 17:26:00,60.5,24.5,30.19,NNW,336,3.0,6.0,25,0.00,,,0.00,WeatherCatV1.11B39,2013-03-08 22:26:00,
2013-03-08 17:31:00,60.4,23.4,30.19,NW,317,2.0,8.0,24,0.00,,,0.00,WeatherCatV1.11B39,2013-03-08 22:31:00,
2013-03-08 17:36:00,60.4,27.1,30.19,NNW,334,5.0,9.0,28,0.00,,,0.00,WeatherCatV1.11B39,2013-03-08 22:36:00,
2013-03-08 17:41:00,60.0,26.8,30.20,NNW,331,3.0,8.0,28,0.00,,,0.00,WeatherCatV1.11B39,2013-03-08 22:41:00,
2013-03-08 17:46:00,59.6,26.5,30.20,NNW,327,0.0,5.0,28,0.00,,,0.00,WeatherCatV1.11B39,2013-03-08 22:46:00,
2013-03-08 17:51:00,59.3,26.2,30.20,NNW,328,0.0,4.0,28,0.00,,,0.00,WeatherCatV1.11B39,2013-03-08 22:51:00,
2013-03-08 17:56:00,59.0,27.6,30.20,NW,324,0.0,5.0,30,0.00,,,0.00,WeatherCatV1.11B39,2013-03-08 22:56:00,
2013-03-08 18:01:00,58.8,27.4,30.20,NW,309,1.0,6.0,30,0.00,,,0.00,WeatherCatV1.11B39,2013-03-08 23:01:00,
2013-03-08 18:06:00,58.4,27.9,30.20,WNW,294,2.0,6.0,31,0.00,,,0.00,WeatherCatV1.11B39,2013-03-08 23:06:00,
2013-03-08 18:11:00,58.0,27.5,30.20,WNW,298,2.0,4.0,31,0.00,,,0.00,WeatherCatV1.11B39,2013-03-08 23:11:00,
2013-03-08 18:16:00,57.5,28.6,30.20,NNW,331,2.0,3.0,33,0.00,,,0.00,WeatherCatV1.11B39,2013-03-08 23:16:00,
2013-03-08 18:21:00,56.9,28.1,30.20,NNW,328,0.0,3.0,33,0.00,,,0.00,WeatherCatV1.11B39,2013-03-08 23:21:00,
2013-03-08 18:26:00,56.3,27.6,30.21,NNW,328,0.0,3.0,33,0.00,,,0.00,WeatherCatV1.11B39,2013-03-08 23:26:00,
2013-03-08 18:31:00,55.8,27.1,30.20,NNW,327,4.0,4.0,33,0.00,,,0.00,WeatherCatV1.11B39,2013-03-08 23:31:00,
2013-03-08 18:36:00,55.1,27.2,30.21,NW,326,0.0,3.0,34,0.00,,,0.00,WeatherCatV1.11B39,2013-03-08 23:36:00,
2013-03-08 18:41:00,54.6,26.8,30.21,NW,324,0.0,1.0,34,0.00,,,0.00,WeatherCatV1.11B39,2013-03-08 23:41:00,
2013-03-08 18:46:00,54.0,27.7,30.21,NW,324,0.0,0.0,36,0.00,,,0.00,WeatherCatV1.11B39,2013-03-08 23:46:00,
2013-03-08 18:51:00,53.4,27.8,30.21,NW,323,0.0,3.0,37,0.00,,,0.00,WeatherCatV1.11B39,2013-03-08 23:51:00,
2013-03-08 18:56:00,52.8,27.3,30.22,NW,318,2.0,3.0,37,0.00,,,0.00,WeatherCatV1.11B39,2013-03-08 23:56:00,
2013-03-08 19:01:00,52.4,27.5,30.22,NW,318,0.0,2.0,38,0.00,,,0.00,WeatherCatV1.11B39,2013-03-09 00:01:00,
2013-03-08 19:06:00,51.9,27.7,30.23,NW,318,0.0,3.0,39,0.00,,,0.00,WeatherCatV1.11B39,2013-03-09 00:06:00,
2013-03-08 19:11:00,51.6,27.5,30.23,NW,315,3.0,4.0,39,0.00,,,0.00,WeatherCatV1.11B39,2013-03-09 00:11:00,
2013-03-08 19:16:00,51.3,27.2,30.23,NW,312,3.0,4.0,39,0.00,,,0.00,WeatherCatV1.11B39,2013-03-09 00:16:00,
2013-03-08 19:21:00,51.0,28.1,30.23,NW,312,2.0,3.0,41,0.00,,,0.00,WeatherCatV1.11B39,2013-03-09 00:21:00,
2013-03-08 19:26:00,50.8,28.5,30.23,NW,311,0.0,1.0,42,0.00,,,0.00,WeatherCatV1.11B39,2013-03-09 00:26:00,
2013-03-08 19:31:00,50.5,28.3,30.23,NW,311,0.0,2.0,42,0.00,,,0.00,WeatherCatV1.11B39,2013-03-09 00:31:00,
2013-03-08 19:36:00,50.3,27.5,30.24,NW,311,0.0,1.0,41,0.00,,,0.00,WeatherCatV1.11B39,2013-03-09 00:36:00,
2013-03-08 19:41:00,50.2,28.6,30.24,NW,311,1.0,2.0,43,0.00,,,0.00,WeatherCatV1.11B39,2013-03-09 00:41:00,
2013-03-08 19:46:00,50.0,27.8,30.24,NW,311,1.0,4.0,42,0.00,,,0.00,WeatherCatV1.11B39,2013-03-09 00:46:00,
2013-03-08 19:51:00,49.7,27.6,30.24,NW,311,0.0,2.0,42,0.00,,,0.00,WeatherCatV1.11B39,2013-03-09 00:51:00,
2013-03-08 19:56:00,49.6,28.0,30.24,NW,311,0.0,0.0,43,0.00,,,0.00,WeatherCatV1.11B39,2013-03-09 00:56:00,
2013-03-08 20:01:00,49.4,27.9,30.25,NW,311,0.0,1.0,43,0.00,,,0.00,WeatherCatV1.11B39,2013-03-09 01:01:00,
2013-03-08 20:06:00,49.2,27.7,30.25,NW,311,0.0,0.0,43,0.00,,,0.00,WeatherCatV1.11B39,2013-03-09 01:06:00,
2013-03-08 20:11:00,48.9,28.5,30.25,NW,311,1.0,1.0,45,0.00,,,0.00,WeatherCatV1.11B39,2013-03-09 01:11:00,
2013-03-08 20:16:00,48.7,28.3,30.25,NW,311,0.0,0.0,45,0.00,,,0.00,WeatherCatV1.11B39,2013-03-09 01:16:00,
2013-03-08 20:21:00,48.4,29.6,30.25,NW,311,0.0,0.0,48,0.00,,,0.00,WeatherCatV1.11B39,2013-03-09 01:21:00,
2013-03-08 20:26:00,48.1,30.3,30.25,NW,311,0.0,0.0,50,0.00,,,0.00,WeatherCatV1.11B39,2013-03-09 01:26:00,
2013-03-08 20:31:00,47.7,31.4,30.25,NW,311,0.0,0.0,53,0.00,,,0.00,WeatherCatV1.11B39,2013-03-09 01:31:00,
2013-03-08 20:36:00,47.3,30.6,30.25,NW,311,2.0,2.0,52,0.00,,,0.00,WeatherCatV1.11B39,2013-03-09 01:36:00,
2013-03-08 20:41:00,46.8,30.1,30.25,NW,311,0.0,0.0,52,0.00,,,0.00,WeatherCatV1.11B39,2013-03-09 01:41:00,
2013-03-08 20:46:00,46.2,31.8,30.25,NW,311,0.0,0.0,57,0.00,,,0.00,WeatherCatV1.11B39,2013-03-09 01:46:00,
2013-03-08 20:51:00,45.5,30.3,30.25,NW,311,0.0,0.0,55,0.00,,,0.00,WeatherCatV1.11B39,2013-03-09 01:51:00,
2013-03-08 20:56:00,44.9,30.2,30.25,NW,311,0.0,0.0,56,0.00,,,0.00,WeatherCatV1.11B39,2013-03-09 01:56:00,
2013-03-08 21:01:00,44.5,30.7,30.25,NW,311,0.0,0.0,58,0.00,,,0.00,WeatherCatV1.11B39,2013-03-09 02:01:00,
2013-03-08 21:06:00,44.1,30.7,30.25,NW,311,1.0,1.0,59,0.00,,,0.00,WeatherCatV1.11B39,2013-03-09 02:06:00,
2013-03-08 21:11:00,43.9,29.7,30.26,NW,311,0.0,1.0,57,0.00,,,0.00,WeatherCatV1.11B39,2013-03-09 02:11:00,
2013-03-08 21:16:00,43.9,30.1,30.26,NW,311,0.0,0.0,58,0.00,,,0.00,WeatherCatV1.11B39,2013-03-09 02:16:00,
2013-03-08 21:21:00,43.9,30.5,30.26,NW,311,2.0,4.0,59,0.00,,,0.00,WeatherCatV1.11B39,2013-03-09 02:21:00,
2013-03-08 21:26:00,43.9,31.3,30.27,NW,311,0.0,0.0,61,0.00,,,0.00,WeatherCatV1.11B39,2013-03-09 02:26:00,
2013-03-08 21:31:00,43.8,31.2,30.26,NW,311,0.0,0.0,61,0.00,,,0.00,WeatherCatV1.11B39,2013-03-09 02:31:00,
2013-03-08 21:36:00,43.7,30.3,30.26,NW,311,0.0,0.0,59,0.00,,,0.00,WeatherCatV1.11B39,2013-03-09 02:36:00,
2013-03-08 21:41:00,43.7,31.1,30.26,NW,311,0.0,0.0,61,0.00,,,0.00,WeatherCatV1.11B39,2013-03-09 02:41:00,
2013-03-08 21:46:00,43.5,31.0,30.25,NW,311,0.0,0.0,61,0.00,,,0.00,WeatherCatV1.11B39,2013-03-09 02:46:00,
2013-03-08 21:52:00,43.3,29.9,30.26,NW,311,0.0,0.0,59,0.00,,,0.00,WeatherCatV1.11B39,2013-03-09 02:52:00,
2013-03-08 21:57:00,43.1,30.6,30.26,NW,311,0.0,0.0,61,0.00,,,0.00,WeatherCatV1.11B39,2013-03-09 02:57:00,
2013-03-08 22:02:00,42.9,30.0,30.26,NW,311,0.0,0.0,60,0.00,,,0.00,WeatherCatV1.11B39,2013-03-09 03:02:00,
2013-03-08 22:07:00,42.8,29.5,30.26,NW,311,0.0,2.0,59,0.00,,,0.00,WeatherCatV1.11B39,2013-03-09 03:07:00,
2013-03-08 22:12:00,42.8,29.9,30.26,NW,311,0.0,1.0,60,0.00,,,0.00,WeatherCatV1.11B39,2013-03-09 03:12:00,
2013-03-08 22:17:00,42.7,29.8,30.26,NW,311,0.0,0.0,60,0.00,,,0.00,WeatherCatV1.11B39,2013-03-09 03:17:00,
2013-03-08 22:22:00,42.7,29.8,30.26,NW,311,0.0,0.0,60,0.00,,,0.00,WeatherCatV1.11B39,2013-03-09 03:22:00,
2013-03-08 22:27:00,42.6,30.1,30.26,NW,311,0.0,0.0,61,0.00,,,0.00,WeatherCatV1.11B39,2013-03-09 03:27:00,
2013-03-08 22:32:00,42.5,29.6,30.25,NW,311,0.0,0.0,60,0.00,,,0.00,WeatherCatV1.11B39,2013-03-09 03:32:00,
2013-03-08 22:37:00,42.3,30.2,30.26,NW,311,0.0,0.0,62,0.00,,,0.00,WeatherCatV1.11B39,2013-03-09 03:37:00,
2013-03-08 22:42:00,42.1,30.0,30.26,NW,311,0.0,0.0,62,0.00,,,0.00,WeatherCatV1.11B39,2013-03-09 03:42:00,
2013-03-08 22:47:00,41.8,29.4,30.26,NW,311,0.0,0.0,61,0.00,,,0.00,WeatherCatV1.11B39,2013-03-09 03:47:00,
2013-03-08 22:52:00,41.6,29.2,30.26,NW,311,0.0,0.0,61,0.00,,,0.00,WeatherCatV1.11B39,2013-03-09 03:52:00,
2013-03-08 22:57:00,41.5,30.2,30.26,NW,311,0.0,2.0,64,0.00,,,0.00,WeatherCatV1.11B39,2013-03-09 03:57:00,
2013-03-08 23:02:00,41.3,30.1,30.26,NW,311,0.0,0.0,64,0.00,,,0.00,WeatherCatV1.11B39,2013-03-09 04:02:00,
2013-03-08 23:07:00,41.1,30.6,30.26,NW,311,0.0,0.0,66,0.00,,,0.00,WeatherCatV1.11B39,2013-03-09 04:07:00,
2013-03-08 23:12:00,40.9,30.1,30.26,NW,311,0.0,0.0,65,0.00,,,0.00,WeatherCatV1.11B39,2013-03-09 04:12:00,
2013-03-08 23:17:00,40.6,30.5,30.26,NW,311,0.0,0.0,67,0.00,,,0.00,WeatherCatV1.11B39,2013-03-09 04:17:00,
2013-03-08 23:22:00,40.3,30.2,30.26,NW,311,0.0,0.0,67,0.00,,,0.00,WeatherCatV1.11B39,2013-03-09 04:22:00,
2013-03-08 23:27:00,40.0,29.6,30.26,NW,311,0.0,0.0,66,0.00,,,0.00,WeatherCatV1.11B39,2013-03-09 04:27:00,
2013-03-08 23:32:00,39.8,29.4,30.27,NW,311,0.0,0.0,66,0.00,,,0.00,WeatherCatV1.11B39,2013-03-09 04:32:00,
2013-03-08 23:37:00,39.7,30.0,30.27,NW,311,1.0,1.0,68,0.00,,,0.00,WeatherCatV1.11B39,2013-03-09 04:37:00,
2013-03-08 23:42:00,39.6,30.3,30.27,NW,311,0.0,1.0,69,0.00,,,0.00,WeatherCatV1.11B39,2013-03-09 04:42:00,
2013-03-08 23:47:00,39.4,30.1,30.27,NW,311,0.0,0.0,69,0.00,,,0.00,WeatherCatV1.11B39,2013-03-09 04:47:00,
2013-03-08 23:52:00,39.2,29.9,30.27,NW,311,0.0,1.0,69,0.00,,,0.00,WeatherCatV1.11B39,2013-03-09 04:52:00,
2013-03-08 23:57:00,39.0,29.3,30.27,NW,311,0.0,0.0,68,0.00,,,0.00,WeatherCatV1.11B39,2013-03-09 04:57:00,